[Iaude] MPEC N143: 2024 NJ3 [a=0.94,e=0.19,i=9.1,H=26.9]
    mpec at cfa.harvard.edu 
    mpec at cfa.harvard.edu
       
    Sat Jul 13 09:57:58 EDT 2024
    
    
  
M.P.E.C. 2024-N143                                Issued 2024 July 13, 13:56 UT
     The Minor Planet Electronic Circulars contain information on unusual
         minor planets, routine data on comets and natural satellites,
         and occasional editorial announcements.  They are published
    on behalf of Division F of the International Astronomical Union by the
          Minor Planet Center, Smithsonian Astrophysical Observatory,
                          Cambridge, MA 02138, U.S.A.
			  
             Prepared using the Tamkin Foundation Computer Network
                              MPC at CFA.HARVARD.EDU
            URL https://www.minorplanetcenter.net/    ISSN 1523-6714
                                    2024 NJ3                                    
Observations:
     K24N03J*KC2024 07 12.24213 18 59 12.574+16 16 19.13         19.3 GVEN143W16
     K24N03J KC2024 07 12.24515 18 59 09.497+16 15 58.50         19.7 GVEN143W16
     K24N03J KC2024 07 12.24818 18 59 06.360+16 15 37.94         19.7 GVEN143W16
     K24N03J KC2024 07 12.25120 18 59 03.254+16 15 17.89         19.6 GVEN143W16
     K24N03J KC2024 07 12.25406 18 59 00.362+16 14 58.27         19.2 GVEN143W16
     K24N03J KC2024 07 12.25675 18 58 57.542+16 14 40.20         19.9 GVEN143W16
     K24N03J 7C2024 07 12.87798718 49 15.230+14 56 02.35         19.2 GVEN143Z84
     K24N03J 7C2024 07 12.88408918 49 07.906+14 55 12.82               VEN143Z84
     K24N03J 7C2024 07 12.89012118 49 00.632+14 54 23.13               VEN143Z84
     K24N03J KC2024 07 13.20801 18 42 46.327+14 06 44.39         21.7 GVEN143W16
     K24N03J KC2024 07 13.21752 18 42 33.257+14 05 11.58         19.9 GVEN143W16
     K24N03J KC2024 07 13.22716 18 42 19.958+14 03 37.04         20.3 GVEN143W16
     K24N03J KC2024 07 13.23590 18 42 07.822+14 02 10.68         19.6 GVEN143W16
     K24N03J KC2024 07 13.24999 18 41 48.252+13 59 50.28         19.4 GVEN143W16
     K24N03J KC2024 07 13.26407 18 41 28.726+13 57 27.72         19.0 GVEN143W16
Observer details:
W16 Pleasant Groves Observatory.  Observer M. Holbrook.  0.36-m f/2.2
    reflector + CCD.
Z84 Calar Alto-Schmidt.  Observers F. Ocana, R. Kresken, M. Micheli, L.
    Conversi.  Measurers F. Ocana, M. Micheli.  0.8-m f/3 Schmidt + CCD.
Orbital elements:
2024 NJ3                                                 Earth MOID = 0.0025 AU
Epoch 2024 Mar. 31.0 TT = JDT 2460400.5                 MPC                     
M 132.16558              (2000.0)            P               Q                  
n   1.08903932     Peri.  307.93477     +0.45159586     -0.88047820             
a   0.9356362      Node   114.63386     +0.86029952     +0.38683465             
e   0.1855569      Incl.    9.13351     +0.23652887     +0.27407500             
P   0.91           H   26.95          G   0.15           U   6                  
Residuals in seconds of arc
240712 W16  0.2-  0.3+    240712 W16  0.3-  0.0     240713 W16  0.1+  0.1-
240712 W16  0.2+  0.1-    240712 Z84  0.0   0.1+    240713 W16  0.4+  0.0
240712 W16  0.1-  0.2-    240712 Z84  0.0   0.2+    240713 W16  0.2-  0.0
240712 W16  0.1-  0.1+    240712 Z84  0.0   0.2-    240713 W16  0.5-  0.3+
240712 W16  0.6+  0.1-    240713 W16  0.4-  0.0     240713 W16  0.3+  0.1-
Ephemeris:
2024 NJ3                 a,e,i = 0.94, 0.19, 9                   q = 0.7620
Date    TT    R. A. (2000) Decl.     Delta      r    Elong.  Phase     V
2024 06 13    20 06 12.2 +20 31 59   0.1305  1.0892   121.3    52.8    24.7
...
2024 06 28    20 01 28.8 +22 03 31   0.07352 1.0647   129.3    47.6    23.2
...
2024 07 06    19 45 08.7 +21 15 32   0.04359 1.0479   134.8    43.5    21.9
...
2024 07 12    19 02 40.3 +16 44 04   0.02194 1.0337   140.9    38.4    20.3
2024 07 13    18 46 47.2 +14 41 49   0.01854 1.0312   142.0    37.4    19.9
2024 07 14    18 24 32.2 +11 37 51   0.01529 1.0287   142.6    36.9    19.4
...
2024 07 20    11 33 29.9 -32 19 26   0.01247 1.0127    73.9   105.4    21.4
...
2024 07 28    09 15 24.5 -28 54 39   0.03992 0.9898    49.2   129.1    25.6
...
2024 08 12    08 45 00.0 -24 41 28   0.09616 0.9429    41.0   135.2    28.0
A. U. Tomatic                (C) Copyright 2024 MPC           M.P.E.C. 2024-N143
    
    
More information about the Iaude
mailing list